Hourly Data Report for October 11, 2016

All times are specified in Local Standard Time (LST). Add 1 hour to adjust for Daylight Saving Time where and when it is observed.

RESOLUTE BAY A
NUNAVUT

74°43'01.000" N
94°58'10.000" W
67.70 m
2403498
71924
YRB

Download Data

Hourly Data (October 2016)
Hourly Data Report for October 11, 2016
Temp Definition
°C
Dew Point Temp Definition
°C
Rel Hum Definition
%
Wind Dir Definition
10's deg

Wind Spd Definition
km/h
Visibility Definition
km
Stn Press Definition
kPa
Hmdx Definition


Wind Chill Definition


Weather Definition


TIME
00:00 Legend Double Dagger -14.7 -16.7 85 31 13 24.1 100.26   -22 Mainly Clear
01:00 Legend Double Dagger -15.1 -17.5 82 34 22 24.1 100.27   -25 LegendNANA
02:00 Legend Double Dagger -15.4 -18.1 80 35 25 24.1 100.28   -26 LegendNANA
03:00 Legend Double Dagger -15.3 -18.2 79 36 19 24.1 100.31   -24 Mostly Cloudy
04:00 Legend Double Dagger -16.2 -18.9 80 36 12 24.1 100.32   -23 LegendNANA
05:00 Legend Double Dagger -15.9 -18.2 83 35 17 24.1 100.33   -25 Snow
06:00 Legend Double Dagger -16.6 -19.1 81 3 29 24.1 100.30   -28 Ice Crystals
07:00 Legend Double Dagger -17.1 -19.9 79 5 37 24.1 100.29   -30 Ice Crystals
08:00 Legend Double Dagger -16.8 -19.2 82 5 29 24.1 100.32   -28 Ice Crystals,Blowing Snow
09:00 Legend Double Dagger -17.1 -19.6 81 4 29 24.1 100.30   -29 Ice Crystals,Blowing Snow
10:00 Legend Double Dagger -16.5 -18.9 82 35 13 24.1 100.37   -24 Ice Crystals
11:00 Legend Double Dagger -16.8 -19.3 81 32 18 24.1 100.38   -26 Snow
12:00 Legend Double Dagger -15.6 -18.0 82 36 15 24.1 100.38   -24 Snow
13:00 Legend Double Dagger -15.7 -18.1 82 34 17 24.1 100.39   -24 Snow
14:00 Legend Double Dagger -16.0 -18.7 80 2 20 24.1 100.41   -25 Snow
15:00 Legend Double Dagger -16.5 -19.0 81 33 21 24.1 100.42   -26 Snow
16:00 Legend Double Dagger -17.2 -19.7 81 4 26 24.1 100.43   -28 Snow
17:00 Legend Double Dagger -17.1 -19.6 81 5 24 24.1 100.42   -28 LegendNANA
18:00 Legend Double Dagger -15.9 -18.8 79 4 26 24.1 100.42   -27 Snow
19:00 Legend Double Dagger -15.8 -18.7 79 3 26 16.1 100.42   -26 Snow
20:00 Legend Double Dagger -15.1 -17.8 80 4 31 8.1 100.38   -26 Snow
21:00 Legend Double Dagger -14.3 -17.2 79 4 27 24.1 100.38   -25 Snow
22:00 Legend Double Dagger -15.1 -18.0 79 4 33 24.1 100.36   -27 Snow
23:00 Legend Double Dagger -14.9 -17.6 80 4 34 24.1 100.37   -27 Snow

Notes on Data Quality.

Legend

  • E = Estimated
  • M = Missing
  • NA = Not Available
  • ‡ = Partner data that is not subject to review by the National Climate Archives
Date modified: